W6KRP-12 Weather Reports


time (UTC)temp
C
wind
direction
speed
KPH
gust
KPH
rain 1hr
cm
rain 24hr
cm
rain mn
cm
humidity
%
barometer
mb
20260506165006 28 263 3.2 8.0 0.00 0.00 0.00 51 1013.2
20260506164006 28 287 0.0 12.9 0.00 0.00 0.00 52 1013.2
20260506163006 27 335 3.2 9.7 0.00 0.00 0.00 53 1013.5
20260506162006 27 276 3.2 12.9 0.00 0.00 0.00 53 1013.3
20260506160006 27 222 0.0 11.3 0.00 0.00 0.00 53 1013.6
20260506155006 27 184 1.6 16.1 0.00 0.00 0.00 54 1013.9
20260506154008 26 343 3.2 11.3 0.00 0.00 0.00 55 1013.9
20260506153007 26 311 3.2 19.3 0.00 0.00 0.00 55 1014.0
20260506151006 25 90 0.0 14.5 0.00 0.00 0.00 59 1014.2
20260506150006 26 94 0.0 8.0 0.00 0.00 0.00 58 1014.0
20260506145006 26 225 4.8 12.9 0.00 0.00 0.00 55 1013.8
20260506144006 26 185 1.6 11.3 0.00 0.00 0.00 55 1014.0
20260506143006 26 225 0.0 9.7 0.00 0.00 0.00 61 1014.0
20260506142006 26 155 3.2 4.8 0.00 0.00 0.00 63 1014.1
20260506141006 25 270 0.0 3.2 0.00 0.00 0.00 66 1014.0
20260506140006 25 225 0.0 4.8 0.00 0.00 0.00 66 1013.9
20260506135006 24 310 1.6 8.0 0.00 0.00 0.00 68 1013.8
20260506133006 23 311 3.2 9.7 0.00 0.00 0.00 72 1013.7
20260506132006 22 312 0.0 4.8 0.00 0.00 0.00 75 1013.5
20260506131006 22 220 1.6 9.7 0.00 0.00 0.00 77 1013.6
20260506130006 21 48 0.0 4.8 0.00 0.00 0.00 78 1013.7
20260506125007 21 228 1.6 8.0 0.00 0.00 0.00 79 1013.8
20260506124007 21 269 1.6 1.6 0.00 0.00 0.00 82 1013.7
20260506122006 20 45 0.0 3.2 0.00 0.00 0.00 90 1013.5
20260506121006 18 225 0.0 3.2 0.00 0.00 0.00 95 1013.5
20260506114006 15 90 0.0 0.0 0.00 0.00 0.00 97 1013.5
20260506112006 15 90 0.0 0.0 0.00 0.00 0.00 96 1013.5
20260506111006 14 90 0.0 0.0 0.00 0.00 0.00 96 1013.3
20260506105007 14 90 0.0 0.0 0.00 0.00 0.00 97 1013.4
20260506104006 13 90 0.0 0.0 0.00 0.00 0.00 97 1013.1
20260506103007 13 90 0.0 0.0 0.00 0.00 0.00 97 1013.3
20260506102006 13 90 0.0 1.6 0.00 0.00 0.00 97 1013.0
20260506095006 13 90 0.0 0.0 0.00 0.00 0.00 96 1013.3
20260506094006 13 90 0.0 0.0 0.00 0.00 0.00 96 1013.3
20260506092006 13 315 0.0 0.0 0.00 0.00 0.00 96 1013.4
20260506091006 13 315 0.0 0.0 0.00 0.00 0.00 96 1013.5
20260506090006 13 315 0.0 0.0 0.00 0.00 0.00 96 1013.2
20260506084006 14 315 0.0 0.0 0.00 0.00 0.00 95 1013.0
20260506083006 14 315 0.0 0.0 0.00 0.00 0.00 95 1013.2
20260506082006 14 315 0.0 1.6 0.00 0.00 0.00 95 1013.2
20260506081007 14 315 0.0 0.0 0.00 0.00 0.00 95 1013.1
20260506073006 14 90 0.0 0.0 0.00 0.00 0.00 95 1012.8
20260506072006 14 315 0.0 0.0 0.00 0.00 0.00 95 1013.0
20260506071007 14 315 0.0 0.0 0.00 0.00 0.00 96 1013.0
20260506062006 13 90 1.6 1.6 0.00 0.00 0.00 96 1013.0
20260506061006 13 90 0.0 1.6 0.00 0.00 0.00 95 1013.4
20260506043006 13 90 0.0 1.6 0.00 0.00 0.00 93 1014.4
20260506042006 14 90 0.0 1.6 0.00 0.00 0.00 93 1014.1
20260506041006 14 88 0.0 1.6 0.00 0.00 0.00 92 1014.1
20260506040009 14 315 0.0 1.6 0.00 0.00 0.00 92 1014.2
20260506034006 15 45 0.0 0.0 0.00 0.00 0.00 90 1014.5
20260506033006 15 45 0.0 1.6 0.00 0.00 0.00 90 1014.4
20260506032006 15 42 0.0 0.0 0.00 0.00 0.00 89 1014.6
20260506031006 15 0 0.0 0.0 0.00 0.00 0.00 87 1014.7
20260506030006 16 0 0.0 0.0 0.00 0.00 0.00 87 1014.7
20260506025007 16 90 0.0 0.0 0.00 0.00 0.00 86 1014.8
20260506023007 16 90 0.0 0.0 0.00 0.00 0.00 85 1014.5
20260506022006 16 90 0.0 0.0 0.00 0.00 0.00 84 1014.6
20260506021006 17 90 0.0 0.0 0.00 0.00 0.00 81 1014.5
20260506020007 17 90 0.0 0.0 0.00 0.00 0.00 81 1014.4
20260506015006 17 90 0.0 0.0 0.00 0.00 0.00 81 1014.3
20260506014006 17 90 0.0 0.0 0.00 0.00 0.00 80 1014.4
20260506013006 18 90 0.0 1.6 0.00 0.00 0.00 79 1014.2
20260506011006 18 90 0.0 1.6 0.00 0.00 0.00 77 1014.1
20260506005007 19 135 0.0 1.6 0.00 0.00 0.00 74 1013.9
20260506003006 20 180 0.0 1.6 0.00 0.00 0.00 70 1013.9
20260506002006 20 180 1.6 3.2 0.00 0.00 0.00 69 1013.8
20260506001006 21 180 1.6 3.2 0.00 0.00 0.00 68 1013.8
20260506000006 21 180 1.6 3.2 0.00 0.00 0.00 66 1014.0
20260505235007 21 178 1.6 3.2 0.00 0.00 0.00 65 1013.8
20260505234007 22 180 1.6 3.2 0.00 0.00 0.00 61 1013.7
20260505233006 23 180 1.6 4.8 0.00 0.00 0.00 58 1013.8
20260505232006 24 180 1.6 4.8 0.00 0.00 0.00 56 1013.8
20260505231006 24 266 1.6 4.8 0.00 0.00 0.00 55 1013.8
20260505230007 24 180 1.6 4.8 0.00 0.00 0.00 54 1013.6
20260505225007 24 180 1.6 4.8 0.00 0.00 0.00 54 1013.6
20260505224007 25 180 1.6 4.8 0.00 0.00 0.00 53 1013.5
20260505223007 25 180 1.6 4.8 0.00 0.00 0.00 52 1013.7
20260505222006 25 180 1.6 4.8 0.00 0.00 0.00 51 1013.6
20260505221006 25 180 1.6 4.8 0.00 0.00 0.00 51 1013.5
20260505220006 25 180 1.6 4.8 0.00 0.00 0.00 51 1013.6
20260505215006 25 183 1.6 4.8 0.00 0.00 0.00 50 1013.7
20260505214006 25 135 1.6 4.8 0.00 0.00 0.00 49 1013.6
20260505213006 25 180 1.6 4.8 0.00 0.00 0.00 48 1013.7
20260505212006 26 180 1.6 4.8 0.00 0.00 0.00 47 1013.6
20260505211006 26 180 1.6 4.8 0.00 0.00 0.00 47 1013.7
20260505210006 26 180 3.2 4.8 0.00 0.00 0.00 47 1013.7
20260505205006 26 180 1.6 4.8 0.00 0.00 0.00 46 1013.6
20260505204007 27 180 1.6 4.8 0.00 0.00 0.00 45 1013.6
20260505203006 27 222 3.2 4.8 0.00 0.00 0.00 44 1013.8
20260505202007 27 180 1.6 8.0 0.00 0.00 0.00 43 1013.7
20260505200006 28 138 1.6 4.8 0.00 0.00 0.00 43 1013.8
20260505195006 29 180 1.6 4.8 0.00 0.00 0.00 41 1014.0
20260505194007 29 225 1.6 8.0 0.00 0.00 0.00 41 1014.1
20260505193007 30 180 1.6 4.8 0.00 0.00 0.00 40 1014.0
20260505192006 30 180 1.6 4.8 0.00 0.00 0.00 41 1014.2
20260505191007 29 181 1.6 4.8 0.00 0.00 0.00 41 1014.5
20260505190006 29 180 1.6 4.8 0.00 0.00 0.00 41 1014.6
20260505185006 30 235 1.6 4.8 0.00 0.00 0.00 39 1014.8
20260505184006 30 135 1.6 9.7 0.00 0.00 0.00 41 1014.8
20260505183006 30 180 1.6 8.0 0.00 0.00 0.00 39 1014.5
20260505182006 29 180 1.6 4.8 0.00 0.00 0.00 41 1014.6
20260505181006 29 92 3.2 4.8 0.00 0.00 0.00 39 1014.6
20260505180006 29 220 1.6 9.7 0.00 0.00 0.00 40 1014.6
20260505175006 29 94 1.6 4.8 0.00 0.00 0.00 41 1014.6
20260505173006 27 180 1.6 4.8 0.00 0.00 0.00 49 1015.1
20260505172006 26 180 1.6 4.8 0.00 0.00 0.00 49 1015.2
20260505171006 26 138 0.0 4.8 0.00 0.00 0.00 49 1015.2
20260505170006 25 138 1.6 3.2 0.00 0.00 0.00 51 1015.4